[[{"header":{"parameterUnit":"m.s-1","parameterCategory":1,"la1":30.2992,"la2":30.254,"lo1":-89.0895,"lo2":-89.0443,"dy":0.0025,"dx":0.0025,"nx":19,"ny":19,"refTime":"2026-05-14T09:00:00:Z","depth":0,"parameterNumber":2,"parameterNumberName":"U-component_of_WINDS"},"data":[0,0,0,-1.2695,-1.2695,-1.2683,-1.2683,-1.2677,-1.2677,0,0,0,0,0,0,0,0,0,0,0,-1.2704,-1.2704,-1.2695,-1.2695,-1.2683,-1.2683,-1.2677,-1.2677,0,0,0,0,0,0,0,0,0,0,0,-1.2704,-1.2704,-1.2705,-1.2695,-1.2683,-1.2683,-1.2677,-1.2683,0,0,0,0,0,0,0,0,0,0,-1.2693,-1.2707,-1.2704,-1.2705,-1.2695,-1.2683,-1.2683,-1.2683,-1.2683,-1.2687,0,-1.2692,0,-1.2685,-1.2678,-1.2678,0,0,0,-1.269,-1.2707,-1.2699,-1.2705,-1.2695,-1.2683,-1.2687,-1.2683,-1.2682,-1.2686,-1.2692,-1.2692,-1.2685,-1.2678,-1.2678,-1.2718,-1.2718,0,0,-1.2691,-1.2705,-1.2699,-1.2699,-1.2701,-1.2687,-1.2687,-1.2682,-1.2689,-1.2692,-1.2691,-1.2685,-1.2678,-1.2678,-1.2717,-1.2718,0,0,0,-1.2696,-1.2706,-1.2697,-1.2699,-1.2697,-1.2687,-1.2686,-1.2689,-1.2685,-1.2691,-1.2685,-1.2678,-1.2678,-1.2717,-1.2718,-1.275,0,0,0,-1.2696,-1.2709,-1.2698,-1.2706,-1.2697,-1.2693,-1.2694,-1.2686,-1.2685,-1.2685,-1.2678,-1.2678,-1.2716,-1.2717,-1.2749,-1.2764,0,0,0,-1.2703,-1.2709,-1.271,-1.2707,-1.2702,-1.2692,-1.2688,-1.2685,-1.2681,-1.2678,-1.2678,-1.2716,-1.2717,-1.2747,-1.2761,-1.2779,0,0,0,-1.2714,-1.2739,-1.271,-1.2735,-1.2703,-1.2713,-1.2688,-1.2695,-1.2696,-1.2678,-1.2717,-1.2717,-1.2746,-1.2759,-1.2777,-1.2796,-1.2805,0,0,-1.2753,-1.2744,-1.2757,-1.2731,-1.2751,-1.2714,-1.2738,-1.2725,-1.2712,-1.2717,-1.2717,-1.2749,-1.2761,-1.2778,-1.2852,-1.286,0,0,0,-1.2774,-1.2784,-1.2786,-1.2788,-1.2779,-1.2773,-1.2756,-1.2751,-1.2754,-1.2717,-1.276,-1.2766,-1.2776,-1.2784,-1.2791,-1.2798,-1.2722,-1.2722,-1.2722,-1.2849,-1.2831,-1.2852,-1.2833,-1.2835,-1.2817,-1.2817,-1.2808,-1.2789,-1.28,-1.2801,-1.2848,-1.2859,-1.2863,-1.2871,-1.281,-1.281,-1.281,-1.281,-1.2903,-1.2915,-1.289,-1.2901,-1.2882,-1.2892,-1.2876,-1.2863,-1.2869,-1.2845,-1.2853,-1.2829,-1.2872,-1.2878,-1.2812,-1.2812,-1.2812,-1.2811,-1.2811,-1.295,-1.2952,-1.2947,-1.2948,-1.2951,-1.2931,-1.2939,-1.2921,-1.2905,-1.2912,-1.2912,-1.2911,-1.2909,-1.2913,-1.2914,-1.2914,-1.2914,-1.2914,-1.2914,-1.3001,-1.2993,-1.3002,-1.2995,-1.2994,-1.2991,-1.2974,-1.2973,-1.2967,-1.2954,-1.2954,-1.2934,-1.2879,-1.2866,-1.2917,-1.2916,-1.2916,-1.2916,-1.2915,-1.3063,-1.3046,-1.3059,-1.3059,-1.305,-1.3054,-1.3032,-1.3032,-1.3028,-1.3033,-1.3012,-1.2974,-1.2963,-1.2958,-1.2947,-1.3015,-1.3015,-1.3015,-1.3015,-1.3103,-1.3096,-1.3105,-1.3106,-1.3104,-1.3085,-1.3101,-1.3089,-1.3073,-1.307,-1.3057,-1.3041,-1.3037,-1.3029,-1.3022,-1.3011,-1.3094,-1.3094,-1.3094,-1.314,-1.3133,-1.3149,-1.3133,-1.3125,-1.3119,-1.3134,-1.3135,-1.3114,-1.3097,-1.3067,-1.3064,-1.3037,-1.3029,-1.3012,-1.3002,-1.2982,0,0]},{"header":{"parameterUnit":"m.s-1","parameterCategory":1,"la1":30.2992,"la2":30.254,"lo1":-89.0895,"lo2":-89.0443,"dy":0.0025,"dx":0.0025,"nx":19,"ny":19,"refTime":"2026-05-14T09:00:00:Z","depth":0,"parameterNumber":3,"parameterNumberName":"V-component_of_WINDS"},"data":[0,0,0,3.464,3.464,3.4621,3.4621,3.461,3.461,0,0,0,0,0,0,0,0,0,0,0,3.4655,3.4655,3.464,3.464,3.4621,3.4621,3.461,3.461,0,0,0,0,0,0,0,0,0,0,0,3.4655,3.4655,3.4655,3.464,3.4621,3.4621,3.461,3.462,0,0,0,0,0,0,0,0,0,0,3.4636,3.4658,3.4655,3.4655,3.464,3.4621,3.4621,3.462,3.4619,3.4625,0,3.4633,0,3.4621,3.461,3.461,0,0,0,3.4634,3.4659,3.4646,3.4655,3.464,3.4621,3.4628,3.4619,3.4618,3.4624,3.4632,3.4632,3.4621,3.461,3.461,3.4667,3.4667,0,0,3.4635,3.4656,3.4646,3.4645,3.465,3.4629,3.4627,3.4618,3.4629,3.4632,3.4631,3.4621,3.461,3.461,3.4666,3.4667,0,0,0,3.4642,3.4657,3.4644,3.4646,3.4642,3.4628,3.4627,3.4629,3.4623,3.4631,3.4621,3.461,3.461,3.4666,3.4667,3.4716,0,0,0,3.4642,3.4661,3.4645,3.4658,3.4642,3.4636,3.4638,3.4624,3.4622,3.4621,3.461,3.4611,3.4665,3.4666,3.4713,3.4735,0,0,0,3.4653,3.4663,3.4663,3.4659,3.4652,3.4635,3.4628,3.4623,3.4617,3.461,3.4611,3.4665,3.4666,3.4711,3.4731,3.4756,0,0,0,3.4671,3.4707,3.4664,3.4701,3.4652,3.4666,3.4628,3.4638,3.4638,3.461,3.4665,3.4666,3.471,3.4729,3.4754,3.4781,3.4794,0,0,3.4729,3.4715,3.4735,3.4696,3.4723,3.4667,3.4701,3.4681,3.4661,3.4666,3.4667,3.4714,3.4731,3.4755,3.4862,3.4873,0,0,0,3.4761,3.4775,3.4778,3.4779,3.4765,3.4754,3.4727,3.4719,3.4722,3.4668,3.4729,3.4739,3.4752,3.4764,3.4773,3.4783,3.4673,3.4673,3.4673,3.4873,3.4845,3.4876,3.4846,3.4848,3.4819,3.4818,3.4803,3.4774,3.4789,3.479,3.4858,3.4873,3.488,3.489,3.4802,3.4802,3.4802,3.4803,3.4955,3.4971,3.4932,3.4948,3.4918,3.493,3.4904,3.4883,3.489,3.4855,3.4865,3.483,3.4892,3.49,3.4806,3.4805,3.4805,3.4805,3.4804,3.5026,3.5029,3.5019,3.5018,3.502,3.4988,3.4997,3.4969,3.4943,3.4953,3.4951,3.495,3.4945,3.4954,3.4954,3.4955,3.4955,3.4955,3.4955,3.5103,3.509,3.5101,3.5089,3.5086,3.5078,3.5049,3.5046,3.5034,3.5013,3.5013,3.4982,3.4904,3.4885,3.4959,3.4958,3.4958,3.4957,3.4957,3.5196,3.517,3.5187,3.5184,3.5167,3.5171,3.5135,3.513,3.5122,3.5127,3.5094,3.5041,3.5025,3.5017,3.5001,3.51,3.51,3.51,3.51,3.5255,3.5244,3.5255,3.5252,3.5246,3.5215,3.5234,3.5212,3.5184,3.5178,3.5159,3.5135,3.5129,3.5116,3.5107,3.5091,3.5211,3.5211,3.5211,3.531,3.5297,3.5319,3.5293,3.5277,3.5264,3.5281,3.5278,3.5242,3.5215,3.5172,3.5167,3.5128,3.5117,3.509,3.5076,3.5046,0,0]}]]